User: anonymous   Login
Location: Unspecified
(0.0000°N, 0.0000°E)
Time: 00:14:01
(UTC+00:00)
Language:

NOSS 7 (E) - Orbit

View from above orbital plane
View from above orbital plane
View from above satellite
View from above satellite

Ground track
Ground track

The orbit data is extracted from the following two-line orbital elements,

1 16624U 86014E   18320.73554863 0.00000400  00000-0  41647-4 0    06
2 16624  63.3030 279.7564 0909751  66.2251 293.7749 13.45915561    00
Epoch (UTC): 16 November 2018 17:39:11
Eccentricity: 0.0909751
inclination: 63.3030°
perigee height: 408 km
apogee height: 1766 km
right ascension of ascending node: 279.7564°
argument of perigee: 66.2251°
revolutions per day: 13.45915561
mean anomaly at epoch: 293.7749°
orbit number at epoch: 0

The dashed part of the orbit path shows where the satellite is in the earth's shadow,  

DLR